sat.trackr.live / text

‹ back to catalog

MEASAT-3B

NORAD 40147 · 2014-054B

PAYLOAD ACTIVE UNKNOWN

§ Identity

Operator
Country
MALA
Launch date
2014-09-11
Launch site
FRGUI
Launch vehicle
Mass (kg)
RCS (m²)
65.61

Purposes: comms

External: N2YO · Heavens-Above · Gunter

§ Orbital elements

Epoch: 2026-05-25T02:28:00.160032Z

Period
1,436.09 min
Inclination
0.0548°
Eccentricity
0.0003290
Mean motion
1.00272112 rev/d
Perigee alt
35,772.6 km
Apogee alt
35,800.4 km
Semi-major
42,164.6 km
B*
0.0000e+0
RAAN
52.6460°
Arg perigee
359.1601°
Mean anomaly
319.4129°
Rev number
4,267

§ Raw data

MEASAT-3B1 40147U 14054B   26145.10277963 -.00000244  00000+0  00000+0 0  99922 40147   0.0548  52.6460 0003290 359.1601 319.4129  1.00272112 42671

JSON: /api/v1/satellites/40147 · /tle

For live sub-satellite position, see the globe view (requires WebGL).

§ Visibility from observer

Set your observer location to see the next 7 days of passes ≥ 10°. The values pass through the URL so the page stays shareable.

No JS? Fill the form by hand. The geolocation button needs JavaScript.